[[{"header":{"parameterUnit":"m.s-1","parameterCategory":1,"la1":30.2991,"la2":30.254,"lo1":-89.0895,"lo2":-89.0444,"dy":0.0017,"dx":0.0017,"nx":28,"ny":28,"refTime":"2025-11-25T09:00:00:Z","depth":0,"parameterNumber":2,"parameterNumberName":"U-component_of_WINDS"},"data":[0,0,0,0,0,0,0,0,0,0,0,0,0,0,0,0,0,0,0,0,0,0,0,0,0,0,0,0,0,0,0,0,0,0,0,0,0,0,0,0,0,0,0,0,0,0,0,0,0,0,0,0,0,0,0,0,0,0,1.369,1.3689,0,1.3611,1.361,1.3609,1.3511,1.3509,1.3508,1.3506,1.3426,1.3425,1.3424,0,0,0,0,0,0,0,0,0,0,0,0,0,1.3757,1.3757,1.369,1.3689,1.3688,1.3611,1.361,1.3609,1.3511,1.3509,1.3508,1.3506,1.3426,1.3425,1.3424,0,0,0,0,0,0,0,0,0,0,0,0,0,1.3708,1.3756,1.369,1.363,1.3624,1.3611,1.361,1.3608,1.3512,1.3509,1.3507,1.3505,1.3426,1.3425,1.3424,1.3464,0,0,1.3421,1.342,0,0,0,0,0,0,0,0,1.3711,1.3706,1.364,1.3634,1.3627,1.3568,1.3604,1.356,1.3512,1.3554,1.3506,1.3504,1.3475,1.347,1.346,1.346,1.3456,1.3421,1.342,1.342,1.3419,0,0,0,0,0,0,0,1.3715,1.3709,1.3659,1.3639,1.3632,1.3607,1.3598,1.3595,1.3529,1.3551,1.3543,1.3535,1.3471,1.3461,1.3457,1.3455,1.3421,1.342,1.3419,1.3419,1.3483,1.3485,0,0,0,0,0,0,1.3727,1.3712,1.3661,1.3656,1.3664,1.3608,1.3597,1.359,1.3528,1.3517,1.3537,1.3531,1.3464,1.3459,1.3454,1.3496,1.342,1.3419,1.3418,1.348,1.3483,1.3486,0,0,0,0,0,0,1.3729,1.3723,1.3664,1.3682,1.3673,1.3609,1.3601,1.3589,1.3579,1.3518,1.3506,1.3539,1.3462,1.3456,1.3462,1.3492,1.3418,1.3417,1.3478,1.3481,1.3485,1.3581,0,0,0,0,0,0,1.3731,1.3725,1.3739,1.3683,1.3672,1.3674,1.3603,1.3589,1.3578,1.3569,1.3517,1.3506,1.346,1.3464,1.3461,1.3489,1.3416,1.3475,1.3479,1.3483,1.3575,1.3587,1.3598,0,0,0,0,0,1.3734,1.377,1.374,1.3735,1.3689,1.3676,1.3669,1.3615,1.3581,1.3594,1.3555,1.3508,1.3489,1.3465,1.3461,1.349,1.3473,1.3478,1.3483,1.357,1.3585,1.3598,0,0,0,0,0,0,1.3831,1.3761,1.3728,1.3747,1.3718,1.3659,1.3675,1.3633,1.3614,1.3606,1.3539,1.3529,1.3543,1.3516,1.3491,1.3524,1.3474,1.3479,1.3541,1.3555,1.3566,1.3573,1.3415,0,0,0,0,0,1.3855,1.385,1.3789,1.3811,1.3798,1.374,1.3732,1.3692,1.366,1.3647,1.3608,1.3579,1.3566,1.3559,1.3544,1.357,1.3557,1.3588,1.3599,1.3609,1.3614,1.3626,1.3638,1.3503,1.3503,1.3503,0,0,1.3904,1.3865,1.3866,1.383,1.3803,1.3799,1.373,1.3729,1.3725,1.3647,1.365,1.3621,1.3583,1.36,1.3605,1.3578,1.3648,1.3616,1.3624,1.3623,1.3632,1.3645,1.3657,1.3507,1.3506,1.3506,0,0,1.3991,1.3961,1.3976,1.395,1.391,1.387,1.3874,1.3822,1.3799,1.3801,1.3742,1.3737,1.3716,1.3692,1.3677,1.3754,1.3709,1.3751,1.3811,1.3824,1.3834,1.3843,1.3871,1.3881,1.3756,1.3756,1.3756,0,1.4056,1.4048,1.3989,1.3992,1.3977,1.3906,1.392,1.3898,1.3856,1.3847,1.3818,1.379,1.376,1.3769,1.3788,1.3778,1.378,1.3756,1.3837,1.3846,1.3854,1.3879,1.3889,1.3761,1.376,1.376,1.3759,0,1.4131,1.4126,1.4143,1.4103,1.4091,1.41,1.4042,1.4037,1.3998,1.3962,1.3965,1.3926,1.3901,1.39,1.3863,1.3905,1.3889,1.385,1.3798,1.3873,1.3895,1.3905,1.3769,1.3767,1.3765,1.3764,0,0,1.4277,1.4204,1.4212,1.4192,1.4142,1.4138,1.4143,1.4119,1.4115,1.4088,1.4091,1.4075,1.4037,1.402,1.3979,1.399,1.4053,1.3949,1.3947,1.397,1.4097,1.4127,1.4139,1.4024,1.4025,1.4026,1.41,0,1.4355,1.436,1.4307,1.4326,1.4321,1.4252,1.4257,1.4227,1.4193,1.4183,1.4146,1.4135,1.4087,1.4076,1.4084,1.4044,1.4078,1.4038,1.4025,1.4026,1.4037,1.4151,1.4183,1.4254,1.4108,1.411,1.4111,0,1.4446,1.4424,1.4443,1.4392,1.4388,1.4393,1.4366,1.4358,1.4322,1.4296,1.4278,1.423,1.4232,1.4182,1.4183,1.4157,1.4149,1.4128,1.413,1.4127,1.4073,1.4151,1.4275,1.4286,1.4124,1.4123,1.4122,0,1.4551,1.4526,1.4534,1.452,1.446,1.4465,1.4441,1.4403,1.4391,1.4368,1.436,1.4337,1.4325,1.4308,1.4256,1.4225,1.4263,1.4209,1.4242,1.4243,1.4253,1.4253,1.4378,1.4248,1.4248,1.4247,1.4247,0,1.4644,1.4658,1.458,1.4585,1.4599,1.4537,1.4553,1.4521,1.4488,1.4486,1.4425,1.4424,1.4355,1.4346,1.4306,1.4312,1.4307,1.4287,1.4276,1.4292,1.4295,1.4286,1.428,1.425,1.425,1.4249,1.4249,0,1.4764,1.4712,1.4716,1.4659,1.4645,1.4658,1.4609,1.4611,1.4573,1.4571,1.4567,1.4507,1.4494,1.444,1.4413,1.4386,1.4406,1.4385,1.4418,1.4411,1.4447,1.4444,1.457,1.4584,1.4445,1.4447,1.4448,0,1.4826,1.4835,1.4779,1.4773,1.4752,1.4743,1.4731,1.467,1.466,1.462,1.4627,1.4609,1.4591,1.4572,1.4526,1.4506,1.4483,1.4529,1.448,1.4496,1.4484,1.4484,1.4485,1.454,1.4541,1.4543,1.4544,0,1.4942,1.4916,1.4901,1.4878,1.4865,1.4844,1.4818,1.4817,1.4749,1.4741,1.4727,1.4713,1.4685,1.4668,1.4639,1.4614,1.4568,1.456,1.4566,1.4583,1.4603,1.4593,1.4447,1.4557,1.4556,1.4555,1.4554,1.4554,1.5035,1.504,1.5001,1.4987,1.4961,1.4939,1.4938,1.49,1.4887,1.486,1.4825,1.4815,1.4778,1.4735,1.4713,1.4704,1.4678,1.4688,1.469,1.4694,1.4702,1.4604,1.4699,1.4698,1.4698,1.4697,1.4697,0,1.5148,1.512,1.5107,1.5074,1.5062,1.502,1.499,1.4983,1.4975,1.4944,1.4928,1.4911,1.4893,1.4846,1.4824,1.4826,1.4804,1.4822,1.4821,1.4816,1.4726,1.4722,1.484,1.484,1.484,1.4839,1.4839,1.4839,1.5205,1.5212,1.5181,1.5174,1.5145,1.5135,1.5121,1.51,1.5076,1.506,1.5045,1.5014,1.4977,1.4951,1.4933,1.492,1.4914,1.4939,1.4919,1.4836,1.4822,1.4809,1.4806,1.4938,1.4939,1.501,1.501,1.5011]},{"header":{"parameterUnit":"m.s-1","parameterCategory":1,"la1":30.2991,"la2":30.254,"lo1":-89.0895,"lo2":-89.0444,"dy":0.0017,"dx":0.0017,"nx":28,"ny":28,"refTime":"2025-11-25T09:00:00:Z","depth":0,"parameterNumber":3,"parameterNumberName":"V-component_of_WINDS"},"data":[0,0,0,0,0,0,0,0,0,0,0,0,0,0,0,0,0,0,0,0,0,0,0,0,0,0,0,0,0,0,0,0,0,0,0,0,0,0,0,0,0,0,0,0,0,0,0,0,0,0,0,0,0,0,0,0,0,0,5.5053,5.5055,0,5.5307,5.531,5.5312,5.5337,5.5334,5.5332,5.5329,5.5589,5.5598,5.5607,0,0,0,0,0,0,0,0,0,0,0,0,0,5.4587,5.4596,5.5052,5.5055,5.5059,5.5306,5.531,5.5313,5.5337,5.5334,5.5331,5.5328,5.5586,5.5597,5.5608,0,0,0,0,0,0,0,0,0,0,0,0,0,5.481,5.4598,5.5052,5.5101,5.5107,5.5306,5.531,5.5314,5.5338,5.5334,5.533,5.5326,5.5582,5.5596,5.561,5.5776,0,0,5.5653,5.5659,0,0,0,0,0,0,0,0,5.4797,5.4827,5.509,5.5098,5.5106,5.5286,5.5241,5.5469,5.5339,5.525,5.5329,5.5324,5.5491,5.5513,5.5569,5.5789,5.58,5.5654,5.5663,5.5669,5.5673,0,0,0,0,0,0,0,5.4782,5.4816,5.5153,5.5094,5.5103,5.511,5.5137,5.5284,5.539,5.5258,5.526,5.529,5.5495,5.5555,5.5575,5.5804,5.5654,5.5666,5.5675,5.568,5.6174,5.6178,0,0,0,0,0,0,5.4757,5.4803,5.5145,5.5161,5.4939,5.5121,5.5152,5.5232,5.5389,5.5409,5.5293,5.529,5.5533,5.5559,5.5584,5.5791,5.5668,5.5682,5.569,5.6169,5.6175,5.618,0,0,0,0,0,0,5.4747,5.4788,5.5135,5.4983,5.5027,5.5133,5.5224,5.5239,5.53,5.5415,5.5434,5.5336,5.5531,5.5565,5.5729,5.5801,5.5688,5.5701,5.6163,5.6171,5.6177,5.6205,0,0,0,0,0,0,5.4734,5.4784,5.4848,5.4984,5.5035,5.5275,5.5228,5.5247,5.5324,5.5323,5.546,5.5479,5.5531,5.5708,5.5743,5.5818,5.5712,5.6158,5.6167,5.6175,5.6198,5.6212,5.6224,0,0,0,0,0,5.4717,5.4846,5.4852,5.4893,5.5118,5.5279,5.5308,5.5365,5.533,5.5396,5.547,5.5475,5.5786,5.5724,5.5764,5.5844,5.6153,5.6164,5.6174,5.6192,5.6209,5.6224,0,0,0,0,0,0,5.4716,5.4864,5.4873,5.5049,5.5151,5.5283,5.5368,5.5381,5.5495,5.5489,5.5554,5.5585,5.5747,5.5812,5.574,5.6014,5.5966,5.5985,5.5966,5.5984,5.5996,5.5978,5.5724,0,0,0,0,0,5.4736,5.4854,5.4977,5.5121,5.5172,5.5261,5.5333,5.5368,5.5476,5.552,5.5606,5.5711,5.5832,5.5911,5.6029,5.6207,5.6238,5.6282,5.6295,5.6305,5.6321,5.6421,5.6442,5.6214,5.6214,5.6214,0,0,5.4779,5.4875,5.4946,5.5123,5.5207,5.5328,5.5297,5.5426,5.5517,5.5539,5.57,5.5767,5.5888,5.606,5.614,5.6119,5.639,5.6318,5.6325,5.6336,5.6434,5.6455,5.6474,5.6221,5.622,5.6219,0,0,5.492,5.5004,5.5134,5.5218,5.5344,5.5402,5.5433,5.5563,5.5609,5.5771,5.579,5.5898,5.6106,5.6193,5.6263,5.6436,5.6446,5.6473,5.6541,5.6638,5.6656,5.6672,5.6735,5.6757,5.6488,5.6488,5.6488,0,5.4958,5.5141,5.5198,5.5328,5.5406,5.5431,5.5563,5.5642,5.58,5.5853,5.5827,5.609,5.6173,5.6366,5.6408,5.6464,5.6502,5.6459,5.6648,5.6665,5.6681,5.6742,5.6766,5.6491,5.6491,5.649,5.649,0,5.5182,5.5309,5.5398,5.5551,5.5639,5.5769,5.5846,5.5927,5.5954,5.6015,5.618,5.6281,5.642,5.6468,5.6495,5.6666,5.6649,5.6635,5.6588,5.6705,5.6763,5.6787,5.6495,5.6494,5.6493,5.6492,0,0,5.5331,5.5513,5.5545,5.5616,5.5757,5.5856,5.5987,5.6123,5.6193,5.6301,5.6413,5.6588,5.6576,5.6657,5.6694,5.6778,5.6911,5.6754,5.6758,5.6781,5.7106,5.7117,5.7143,5.6917,5.6921,5.6925,5.7096,0,5.5489,5.5723,5.5778,5.5979,5.6098,5.6123,5.6237,5.6336,5.6396,5.6505,5.6571,5.6695,5.6669,5.6718,5.6803,5.6876,5.6977,5.6865,5.7023,5.7028,5.6993,5.7174,5.7186,5.7343,5.7119,5.7123,5.7126,0,5.5705,5.5819,5.6032,5.6158,5.621,5.6312,5.6442,5.6545,5.6658,5.6696,5.6785,5.6814,5.6951,5.6896,5.7087,5.7009,5.7076,5.7122,5.713,5.7148,5.7085,5.7199,5.7394,5.7418,5.7162,5.7159,5.7157,0,5.5794,5.6,5.6155,5.6214,5.6364,5.6435,5.6501,5.661,5.6689,5.6802,5.6854,5.6982,5.7052,5.715,5.7212,5.7166,5.7398,5.7348,5.7435,5.7433,5.7484,5.748,5.7695,5.7524,5.7524,5.7523,5.7523,0,5.5967,5.6096,5.6197,5.6292,5.6438,5.65,5.6643,5.6709,5.6805,5.6914,5.6943,5.7044,5.7119,5.7231,5.728,5.7431,5.7462,5.7497,5.7509,5.7496,5.7492,5.7542,5.7534,5.753,5.7528,5.7527,5.7526,0,5.6092,5.6164,5.6335,5.6463,5.6498,5.6601,5.6711,5.6804,5.6864,5.7001,5.7037,5.7132,5.7265,5.7336,5.7502,5.7535,5.7705,5.771,5.7668,5.7673,5.7756,5.7748,5.8013,5.8051,5.7853,5.7854,5.7856,0,5.6198,5.6298,5.6438,5.6513,5.658,5.67,5.6781,5.6845,5.6928,5.7064,5.7141,5.7276,5.7387,5.7598,5.7682,5.7809,5.7819,5.7902,5.7838,5.7822,5.7823,5.7817,5.7828,5.7914,5.7916,5.7918,5.7919,0,5.6379,5.641,5.6525,5.6654,5.6749,5.6853,5.6956,5.7016,5.7096,5.7188,5.7325,5.7411,5.7581,5.7715,5.7848,5.7916,5.7932,5.7938,5.7965,5.7954,5.7926,5.7944,5.7701,5.7932,5.7931,5.793,5.7929,5.7929,5.65,5.659,5.6703,5.6831,5.6915,5.701,5.7105,5.7177,5.7292,5.7436,5.7466,5.761,5.7721,5.7902,5.7974,5.8088,5.8071,5.811,5.8121,5.813,5.8134,5.7906,5.8112,5.8112,5.8112,5.8112,5.8111,0,5.6684,5.6757,5.6874,5.7018,5.7118,5.7123,5.7237,5.7321,5.7448,5.7549,5.7658,5.7816,5.7945,5.8039,5.8171,5.8245,5.8255,5.8277,5.8274,5.829,5.8141,5.8105,5.8267,5.8267,5.8267,5.8267,5.8267,5.8267,5.6792,5.6946,5.699,5.7187,5.726,5.7402,5.7467,5.7555,5.7637,5.7811,5.7919,5.7979,5.8078,5.8218,5.8337,5.8361,5.8409,5.8432,5.8457,5.8316,5.83,5.8284,5.8251,5.8441,5.8441,5.8597,5.8598,5.8599]}]]